Hourly Weather Rusalivka

Today, 16 April, Friday

Time Temperature Precipitation Wind Pressure Humidity
00:00 +8°C° 0.2 mm 3 mps 739 mmHg 90%
01:00 +7°C° 0.2 mm 3 mps 739 mmHg 91%
02:00 +7°C° 0 mm 3 mps 739 mmHg 93%
03:00 +7°C° 0.3 mm 3 mps 739 mmHg 93%
04:00 +7°C° 0.3 mm 3 mps 739 mmHg 93%
05:00 +7°C° 0.3 mm 3 mps 739 mmHg 93%
06:00 +7°C° 0.2 mm 3 mps 740 mmHg 91%
07:00 +7°C° 0.2 mm 3 mps 740 mmHg 90%
08:00 +6°C° 0.2 mm 4 mps 740 mmHg 89%
09:00 +5°C° 0.2 mm 3 mps 740 mmHg 88%
10:00 +5°C° 0.2 mm 3 mps 740 mmHg 88%
11:00 +5°C° 0.2 mm 3 mps 740 mmHg 87%
12:00 +5°C° 1.3 mm 3 mps 740 mmHg 87%
13:00 +5°C° 1.3 mm 3 mps 740 mmHg 87%
14:00 +5°C° 1.3 mm 3 mps 740 mmHg 86%
15:00 +5°C° 1.5 mm 3 mps 741 mmHg 87%
16:00 +5°C° 1.5 mm 3 mps 741 mmHg 87%
17:00 +5°C° 1.5 mm 3 mps 741 mmHg 87%
18:00 +5°C° 0.3 mm 4 mps 741 mmHg 86%
19:00 +5°C° 0.3 mm 4 mps 742 mmHg 84%
20:00 +4°C° 0.3 mm 4 mps 742 mmHg 82%
21:00 +4°C° 0 mm 4 mps 742 mmHg 84%
22:00 +4°C° 0 mm 4 mps 743 mmHg 85%
23:00 +3°C° 0 mm 4 mps 743 mmHg 87%

Tomorrow, 17 April, Saturday

Time Temperature Precipitation Wind Pressure Humidity
00:00 +3°C° 0 mm 4 mps 743 mmHg 86%
01:00 +3°C° 0 mm 4 mps 743 mmHg 86%
02:00 +3°C° 0 mm 4 mps 744 mmHg 86%
03:00 +3°C° 0 mm 4 mps 744 mmHg 85%
04:00 +3°C° 0 mm 4 mps 744 mmHg 85%
05:00 +3°C° 0 mm 4 mps 744 mmHg 85%
06:00 +3°C° 0 mm 4 mps 744 mmHg 86%
07:00 +3°C° 0 mm 4 mps 745 mmHg 88%
08:00 +3°C° 0 mm 4 mps 745 mmHg 89%
09:00 +4°C° 0.2 mm 4 mps 745 mmHg 89%
10:00 +4°C° 0.2 mm 3 mps 746 mmHg 88%
11:00 +4°C° 0.2 mm 3 mps 746 mmHg 87%
12:00 +5°C° 0.1 mm 3 mps 746 mmHg 85%
13:00 +5°C° 0.1 mm 3 mps 746 mmHg 83%
14:00 +7°C° 0.1 mm 3 mps 746 mmHg 81%
15:00 +7°C° 0 mm 3 mps 746 mmHg 80%
16:00 +7°C° 0 mm 2 mps 746 mmHg 78%
17:00 +7°C° 0 mm 2 mps 746 mmHg 77%
18:00 +7°C° 0 mm 2 mps 746 mmHg 80%
19:00 +6°C° 0 mm 2 mps 746 mmHg 84%
20:00 +5°C° 0 mm 2 mps 746 mmHg 87%
21:00 +5°C° 0 mm 2 mps 746 mmHg 87%
22:00 +4°C° 0 mm 2 mps 746 mmHg 87%
23:00 +4°C° 0 mm 2 mps 746 mmHg 88%

Day after tomorrow, 18 April, Sunday

Time Temperature Precipitation Wind Pressure Humidity
00:00 +4°C° 0 mm 1 mps 745 mmHg 88%
01:00 +4°C° 0 mm 1 mps 745 mmHg 88%
02:00 +4°C° 0 mm 1 mps 745 mmHg 88%
03:00 +3°C° 0 mm 2 mps 745 mmHg 88%
04:00 +2°C° 0 mm 2 mps 745 mmHg 89%
05:00 +2°C° 0 mm 2 mps 745 mmHg 89%
06:00 +4°C° 0 mm 2 mps 745 mmHg 84%
07:00 +5°C° 0 mm 2 mps 745 mmHg 79%
08:00 +7°C° 0 mm 3 mps 745 mmHg 74%
09:00 +8°C° 0 mm 3 mps 744 mmHg 69%
10:00 +10°C° 0 mm 3 mps 744 mmHg 64%
11:00 +11°C° 0 mm 3 mps 744 mmHg 59%
12:00 +12°C° 0 mm 3 mps 744 mmHg 57%
13:00 +13°C° 0 mm 3 mps 744 mmHg 55%
14:00 +13°C° 0 mm 3 mps 744 mmHg 52%
15:00 +14°C° 0 mm 2 mps 744 mmHg 55%
16:00 +14°C° 0 mm 2 mps 744 mmHg 57%
17:00 +13°C° 0 mm 2 mps 744 mmHg 60%
18:00 +12°C° 0 mm 2 mps 744 mmHg 68%
19:00 +10°C° 0 mm 3 mps 744 mmHg 76%
20:00 +9°C° 0 mm 3 mps 744 mmHg 83%
21:00 +8°C° 0 mm 3 mps 744 mmHg 85%
22:00 +8°C° 0 mm 3 mps 744 mmHg 86%
23:00 +7°C° 0 mm 3 mps 744 mmHg 88%

19 April, Monday

Time Temperature Precipitation Wind Pressure Humidity
00:00 +7°C° 0 mm 3 mps 744 mmHg 88%
01:00 +5°C° 0 mm 3 mps 744 mmHg 88%
02:00 +5°C° 0 mm 3 mps 744 mmHg 87%
03:00 +4°C° 0 mm 3 mps 744 mmHg 87%
04:00 +4°C° 0 mm 3 mps 744 mmHg 86%
05:00 +3°C° 0 mm 3 mps 744 mmHg 86%
06:00 +4°C° 0 mm 3 mps 743 mmHg 82%
07:00 +5°C° 0 mm 3 mps 743 mmHg 77%
08:00 +6°C° 0 mm 4 mps 743 mmHg 73%
09:00 +7°C° 0 mm 4 mps 743 mmHg 69%
10:00 +10°C° 0 mm 4 mps 743 mmHg 64%
11:00 +11°C° 0 mm 3 mps 742 mmHg 60%
12:00 +11°C° 0 mm 4 mps 742 mmHg 59%
13:00 +11°C° 0 mm 4 mps 742 mmHg 58%
14:00 +12°C° 0 mm 4 mps 741 mmHg 57%
15:00 +11°C° 0 mm 4 mps 741 mmHg 59%
16:00 +10°C° 0 mm 5 mps 740 mmHg 61%
17:00 +9°C° 0 mm 6 mps 739 mmHg 62%
18:00 +9°C° 0 mm 6 mps 739 mmHg 65%
19:00 +8°C° 0 mm 6 mps 739 mmHg 68%
20:00 +7°C° 0 mm 6 mps 738 mmHg 71%
21:00 +7°C° 0 mm 6 mps 737 mmHg 72%
22:00 +5°C° 0 mm 6 mps 737 mmHg 73%
23:00 +5°C° 0 mm 7 mps 736 mmHg 74%

20 April, Tuesday

Time Temperature Precipitation Wind Pressure Humidity
00:00 +5°C° 0.4 mm 7 mps 735 mmHg 78%
01:00 +5°C° 0.4 mm 7 mps 734 mmHg 82%
02:00 +5°C° 0.4 mm 7 mps 733 mmHg 86%
03:00 +4°C° 1.8 mm 8 mps 732 mmHg 89%
04:00 +4°C° 1.8 mm 8 mps 731 mmHg 92%
05:00 +4°C° 1.8 mm 8 mps 729 mmHg 94%
06:00 +4°C° 3.9 mm 8 mps 729 mmHg 95%
07:00 +4°C° 3.9 mm 8 mps 728 mmHg 95%
08:00 +4°C° 3.9 mm 8 mps 728 mmHg 96%
09:00 +4°C° 1.8 mm 8 mps 728 mmHg 95%
10:00 +4°C° 1.8 mm 8 mps 727 mmHg 95%
11:00 +4°C° 1.8 mm 7 mps 727 mmHg 94%
12:00 +5°C° 1.6 mm 7 mps 727 mmHg 93%
13:00 +5°C° 1.6 mm 7 mps 728 mmHg 93%
14:00 +5°C° 1.6 mm 7 mps 728 mmHg 92%
15:00 +5°C° 0.8 mm 7 mps 728 mmHg 92%
16:00 +5°C° 0.8 mm 8 mps 729 mmHg 92%
17:00 +4°C° 0.8 mm 8 mps 729 mmHg 92%
18:00 +5°C° 0.4 mm 8 mps 730 mmHg 91%
19:00 +5°C° 0.4 mm 8 mps 730 mmHg 91%
20:00 +5°C° 0.4 mm 8 mps 731 mmHg 90%
21:00 +5°C° 0.1 mm 8 mps 732 mmHg 89%
22:00 +5°C° 0.1 mm 8 mps 732 mmHg 87%
23:00 +5°C° 0.1 mm 9 mps 733 mmHg 85%

21 April, Wednesday

Time Temperature Precipitation Wind Pressure Humidity
00:00 +5°C° 0 mm 8 mps 733 mmHg 85%
01:00 +5°C° 0 mm 8 mps 734 mmHg 84%
02:00 +4°C° 0 mm 8 mps 735 mmHg 84%
03:00 +4°C° 0 mm 7 mps 735 mmHg 85%
04:00 +3°C° 0 mm 7 mps 736 mmHg 86%
05:00 +3°C° 0 mm 7 mps 736 mmHg 88%
06:00 +3°C° 0 mm 6 mps 737 mmHg 86%
07:00 +4°C° 0 mm 6 mps 737 mmHg 84%
08:00 +5°C° 0 mm 6 mps 738 mmHg 82%
09:00 +6°C° 0 mm 7 mps 738 mmHg 76%
10:00 +8°C° 0 mm 7 mps 739 mmHg 70%
11:00 +9°C° 0 mm 7 mps 739 mmHg 63%
12:00 +10°C° 0.1 mm 7 mps 740 mmHg 62%
13:00 +10°C° 0.1 mm 6 mps 740 mmHg 60%
14:00 +11°C° 0.1 mm 6 mps 740 mmHg 59%
15:00 +10°C° 0 mm 5 mps 741 mmHg 61%
16:00 +10°C° 0 mm 5 mps 741 mmHg 62%
17:00 +11°C° 0 mm 4 mps 742 mmHg 64%
18:00 +10°C° 0 mm 4 mps 742 mmHg 68%
19:00 +9°C° 0 mm 3 mps 742 mmHg 71%
20:00 +8°C° 0 mm 3 mps 743 mmHg 75%
21:00 +8°C° 0 mm 3 mps 743 mmHg 77%
22:00 +7°C° 0 mm 3 mps 744 mmHg 79%
23:00 +5°C° 0 mm 3 mps 744 mmHg 80%
Show more